Williams, AZ

2:17 PM MST on August 23, 2016 (GMT -0700)
Williams

Weather History for KCMR - April, 2014

Change the Weather History Date:

Wednesday, April 2, 2014

  Actual Average (KFLG) Record (KFLG)
Temperature  
Mean Temperature 32 °F 40 °F  
Max Temperature 41 °F 54 °F 72 °F (1959)
Min Temperature 23 °F 26 °F -2 °F (1975)
Degree Days  
Heating Degree Days 33 25  
Month to date heating degree days 50  
Since 1 July heating degree days 5757  
Cooling Degree Days 0 0  
Month to date cooling degree days 0  
Year to date cooling degree days 0  
Moisture  
Dew Point 23 °F    
Average Humidity 69    
Maximum Humidity 100    
Minimum Humidity 36    
Precipitation  
Precipitation 0.00 in 0.05 in 0.91 in (1977)
Month to date precipitation 0.10  
Year to date precipitation 6.43  
Snow  
Snow 0.00 in 0.40 in 17.80 in (1997)
Month to date snowfall 0.7  
Since 1 July snowfall 94.6  
Snow Depth -    
Sea Level Pressure  
Sea Level Pressure 29.91 in    
Wind  
Wind Speed 13 mph (SSW)    
Max Wind Speed 21 mph    
Max Gust Speed 32 mph    
Visibility 9 miles    
Events      
T = Trace of Precipitation, MM = Missing Value Source: NWS Daily Summary

Daily Weather History Graph

Daily Weather History Graph

Search for Another Location

Airport or City:

Trip Planner

Search our weather history database for the weather conditions in past years. The results will help you decide how hot, cold, wet, or windy it might be!

Date:

Astronomy

Apr. 02, 2014 Rise Set
Actual Time 6:13 AM MST 6:51 PM MST
Civil Twilight 5:48 AM MST 7:16 PM MST
Nautical Twilight 5:18 AM MST 7:47 PM MST
Astronomical Twilight 4:47 AM MST 8:17 PM MST
Moon 8:07 AM MST (4/2) 10:11 PM MST (4/2)
Length of Visible Light 13h 28m
Length of Day
12h 37m
Waxing Crescent, 11% of the Moon is Illuminated
Apr 2
Waxing Crescent
Apr 7
First Quarter
Apr 15
Full
Apr 22
Last Quarter
Apr 28
New

Hourly Weather History & Observations

Time (MST) Temp. Windchill Dew Point Humidity Pressure Visibility Wind Dir Wind Speed Gust Speed Precip Events Conditions
12:15 AM 35.6 °F 24.5 °F 26.6 °F 70% 29.89 in 10.0 mi SSE 20.7 mph 32.2 mph N/A   Scattered Clouds
12:35 AM 35.6 °F 24.8 °F 26.6 °F 70% 29.89 in 10.0 mi SSE 19.6 mph 28.8 mph N/A   Mostly Cloudy
12:55 AM 37.4 °F 27.2 °F 28.4 °F 70% 29.89 in 10.0 mi South 19.6 mph 28.8 mph N/A   Overcast
1:15 AM 35.6 °F 25.5 °F 26.6 °F 70% 29.89 in 10.0 mi South 17.3 mph 32.2 mph N/A   Mostly Cloudy
1:35 AM 35.6 °F 25.2 °F 28.4 °F 75% 29.89 in 10.0 mi South 18.4 mph 29.9 mph N/A   Mostly Cloudy
1:55 AM 35.6 °F 25.2 °F 28.4 °F 75% 29.88 in 10.0 mi South 18.4 mph 23.0 mph N/A   Mostly Cloudy
2:15 AM 35.6 °F 25.5 °F 28.4 °F 75% 29.88 in 10.0 mi South 17.3 mph 25.3 mph N/A   Overcast
2:35 AM 35.6 °F 26.6 °F 26.6 °F 70% 29.88 in 10.0 mi SSW 13.8 mph 25.3 mph N/A   Mostly Cloudy
2:55 AM 35.6 °F 26.2 °F 26.6 °F 70% 29.87 in 10.0 mi South 15.0 mph 24.2 mph N/A   Overcast
3:15 AM 33.8 °F 22.8 °F 26.6 °F 75% 29.87 in 10.0 mi South 18.4 mph 23.0 mph N/A   Overcast
3:35 AM 33.8 °F 25.3 °F 23.0 °F 65% 29.86 in 10.0 mi South 11.5 mph 20.7 mph N/A   Mostly Cloudy
3:55 AM 32.0 °F 23.0 °F 21.2 °F 64% 29.87 in 10.0 mi South 11.5 mph 18.4 mph N/A   Partly Cloudy
4:15 AM 32.0 °F 23.0 °F 19.4 °F 60% 29.87 in 10.0 mi South 11.5 mph - N/A   Partly Cloudy
5:55 AM 28.4 °F 19.7 °F 19.4 °F 69% 29.88 in 10.0 mi South 9.2 mph - N/A   Clear
6:15 AM 28.4 °F 20.4 °F 19.4 °F 69% 29.89 in 10.0 mi South 8.1 mph - N/A   Clear
6:35 AM 26.6 °F 21.2 °F 19.4 °F 74% 29.89 in 10.0 mi South 4.6 mph - N/A   Clear
6:55 AM 28.4 °F 21.2 °F 21.2 °F 74% 29.90 in 10.0 mi South 6.9 mph - N/A   Clear
7:15 AM 32.0 °F 26.4 °F 21.2 °F 64% 29.89 in 10.0 mi SSW 5.8 mph - N/A   Clear
7:35 AM 32.0 °F 23.6 °F 19.4 °F 60% 29.90 in 10.0 mi South 10.4 mph 17.3 mph N/A   Clear
7:55 AM 33.8 °F 24.8 °F 19.4 °F 56% 29.90 in 10.0 mi South 12.7 mph 18.4 mph N/A   Clear
8:15 AM 35.6 °F 26.6 °F 17.6 °F 48% 29.89 in 10.0 mi South 13.8 mph 17.3 mph N/A   Clear
8:35 AM 35.6 °F 25.9 °F 15.8 °F 44% 29.89 in 10.0 mi South 16.1 mph - N/A   Clear
8:55 AM 37.4 °F 28.5 °F 15.8 °F 41% 29.89 in 10.0 mi South 15.0 mph 19.6 mph N/A   Clear
9:15 AM 37.4 °F 28.9 °F 15.8 °F 41% 29.90 in 10.0 mi SSW 13.8 mph 20.7 mph N/A   Clear
9:35 AM 37.4 °F 28.2 °F 15.8 °F 41% 29.91 in 10.0 mi SSW 16.1 mph 25.3 mph N/A   Clear
9:55 AM 37.4 °F 28.2 °F 17.6 °F 45% 29.91 in 10.0 mi South 16.1 mph 21.9 mph N/A   Partly Cloudy
10:15 AM 39.2 °F 29.6 °F 15.8 °F 39% 29.91 in 10.0 mi SSW 19.6 mph 24.2 mph N/A   Partly Cloudy
11:15 AM 41.0 °F 34.3 °F 15.8 °F 36% 29.90 in 10.0 mi SSW 11.5 mph 19.6 mph N/A   Scattered Clouds
11:35 AM 41.0 °F 32.8 °F 15.8 °F 36% 29.90 in 10.0 mi South 16.1 mph 24.2 mph N/A   Mostly Cloudy
11:55 AM 41.0 °F 33.1 °F 15.8 °F 36% 29.90 in 10.0 mi South 15.0 mph 21.9 mph N/A   Scattered Clouds
12:35 PM 37.4 °F 29.3 °F 17.6 °F 45% 29.89 in 10.0 mi SSE 12.7 mph 19.6 mph N/A   Overcast
12:55 PM 39.2 °F 30.5 °F 19.4 °F 45% 29.89 in 8.0 mi SSE 16.1 mph 31.1 mph N/A   Mostly Cloudy
1:15 PM 37.4 °F 29.8 °F 21.2 °F 52% 29.89 in 5.0 mi SSW 11.5 mph 21.9 mph N/A   Mostly Cloudy
1:35 PM 37.4 °F 28.9 °F 19.4 °F 48% 29.88 in 10.0 mi SSW 13.8 mph - N/A   Overcast
1:55 PM 35.6 °F 26.2 °F 24.8 °F 65% 29.88 in 10.0 mi West 15.0 mph 21.9 mph N/A   Overcast
2:15 PM 35.6 °F 27.1 °F 24.8 °F 65% 29.88 in 10.0 mi West 12.7 mph - N/A   Overcast
2:35 PM 35.6 °F 28.0 °F 28.4 °F 75% 29.88 in 5.0 mi WNW 10.4 mph 18.4 mph N/A   Overcast
3:15 PM 37.4 °F 27.2 °F 19.4 °F 48% 29.88 in 8.0 mi SSW 19.6 mph 29.9 mph N/A   Overcast
3:35 PM 35.6 °F 25.9 °F 23.0 °F 60% 29.89 in 5.0 mi South 16.1 mph 31.1 mph N/A   Overcast
3:55 PM 35.6 °F 25.5 °F 19.4 °F 52% 29.89 in 7.0 mi SSW 17.3 mph 25.3 mph N/A   Overcast
4:15 PM 37.4 °F 28.2 °F 17.6 °F 45% 29.88 in 10.0 mi SSW 16.1 mph 25.3 mph N/A   Mostly Cloudy
4:35 PM 32.0 °F 24.2 °F 26.6 °F 80% 29.90 in 1.0 mi West 9.2 mph 18.4 mph N/A   Overcast
4:55 PM 32.0 °F 22.5 °F 28.4 °F 87% 29.90 in 5.0 mi West 12.7 mph - N/A   Overcast
5:15 PM 32.0 °F 21.2 °F 26.6 °F 80% 29.91 in 10.0 mi West 16.1 mph 27.6 mph N/A   Overcast
5:35 PM 30.2 °F 20.2 °F 26.6 °F 86% 29.92 in 10.0 mi West 12.7 mph 20.7 mph N/A   Overcast
5:55 PM 28.4 °F 20.4 °F 26.6 °F 93% 29.92 in 9.0 mi West 8.1 mph - N/A   Overcast
6:15 PM 28.4 °F 21.2 °F 24.8 °F 86% 29.93 in 10.0 mi West 6.9 mph - N/A   Overcast
6:35 PM 28.4 °F - 24.8 °F 86% 29.93 in 9.0 mi Calm Calm - N/A   Mostly Cloudy
6:55 PM 28.4 °F - 23.0 °F 80% 29.93 in 10.0 mi Calm Calm - N/A   Mostly Cloudy
7:15 PM 28.4 °F - 24.8 °F 86% 29.93 in 10.0 mi Calm Calm - N/A   Mostly Cloudy
7:35 PM 28.4 °F - 24.8 °F 86% 29.93 in 10.0 mi Calm Calm - N/A   Overcast
7:55 PM 28.4 °F - 24.8 °F 86% 29.94 in 10.0 mi Calm Calm - N/A   Overcast
8:15 PM 28.4 °F 19.7 °F 24.8 °F 86% 29.96 in 2.0 mi NW 9.2 mph - N/A   Overcast
8:35 PM 26.6 °F 15.7 °F 24.8 °F 93% 29.97 in 0.8 mi NW 12.7 mph - N/A   Overcast
8:55 PM 26.6 °F 19.1 °F 24.8 °F 93% 29.98 in 3.0 mi WNW 6.9 mph 16.1 mph N/A   Overcast
9:15 PM 26.6 °F - 24.8 °F 93% 29.98 in 3.0 mi Calm Calm - N/A   Mostly Cloudy
9:35 PM 26.6 °F - 24.8 °F 93% 29.98 in 3.0 mi Calm Calm - N/A   Overcast
9:55 PM 26.6 °F - 24.8 °F 93% 29.98 in 10.0 mi Calm Calm - N/A   Mostly Cloudy
10:15 PM 26.6 °F - 24.8 °F 93% 29.98 in 10.0 mi Calm Calm - N/A   Partly Cloudy
10:35 PM 24.8 °F - 24.8 °F 100% 29.98 in 10.0 mi Calm Calm - N/A   Partly Cloudy
10:55 PM 24.8 °F - 23.0 °F 93% 29.99 in 10.0 mi Calm Calm - N/A   Partly Cloudy
11:15 PM 23.0 °F - 21.2 °F 93% 29.99 in 10.0 mi Calm Calm - N/A   Clear
11:35 PM 23.0 °F - 21.2 °F 93% 30.00 in 10.0 mi Calm Calm - N/A   Partly Cloudy
11:55 PM 23.0 °F - 23.0 °F 100% 30.00 in 10.0 mi Calm Calm - N/A   Mostly Cloudy